SPACEBEE-9

Last updated on Sat Dec 18 2021 00:03:20 GMT+0000 (Coordinated Universal Time)

1 44370U 19037F 21350.61299883 .12361281 10367-4 13991-2 0 9995 2 44370 44.9663 238.6552 0009582 239.8689 120.1285 16.35851441139811

Satellite not in orbit